Wind_Speed
22 21 22 21 18 18 20 22 23 22 20 20 20 21 20 22 22 8 10 10 8 12 15 13 12 9 9 7 7 4 6 4 6 4 11 14 10 7 7 12 7 9 7 22 26
23 24 24 21 19 20 20 20 22 23 22 22 21 22 22 20 13 16 14 14 20 18 18 18 13 12 9 7 5 8 7 5 4 1 13 15 11 13 9 12 9 10 9 27 26
23 24 25 25 22 21 22 22 22 23 23 23 22 22 21 13 11 4 1 5 21 21 16 18 12 12 12 9 8 7 11 6 2 1 11 18 12 12 10 12 12 15 17 25 27
25 25 25 25 24 24 25 25 24 24 24 23 23 22 12 4 6 4 4 7 8 17 13 18 14 15 12 12 11 10 10 10 7 7 10 17 16 11 10 4 13 14 20 25 23
26 25 25 25 25 25 27 28 27 26 23 23 23 16 4 8 15 8 9 7 13 20 20 19 19 18 16 11 10 12 12 9 10 8 11 14 15 10 12 9 12 16 21 24 21
26 27 27 28 28 29 28 29 30 29 25 22 17 4 5 16 3 5 7 8 9 22 22 22 15 19 10 12 11 4 7 9 10 9 11 13 11 11 13 13 12 18 22 22 22
27 29 29 28 29 30 29 31 31 30 27 17 8 3 7 18 5 9 9 8 10 21 17 27 22 17 14 11 12 8 11 5 9 12 9 13 11 14 12 13 13 18 19 21 21
30 30 31 32 32 30 30 31 31 24 13 4 6 4 8 4 6 12 13 13 10 16 19 16 27 16 19 6 7 14 13 12 10 15 9 15 12 16 15 16 15 17 18 20 21
29 32 33 33 33 35 33 28 17 5 2 9 4 6 8 4 8 6 12 11 12 13 11 15 18 17 17 15 15 15 14 13 11 14 7 16 6 15 15 16 15 15 18 19 19
32 33 35 36 33 35 28 14 4 3 3 3 6 6 7 6 11 2 7 10 13 15 11 16 12 15 15 17 17 18 17 11 13 15 12 17 9 6 13 16 16 17 17 19 20
31 35 37 37 37 31 17 5 5 6 9 10 7 14 7 6 6 5 8 15 11 18 14 19 19 21 23 22 20 18 15 13 15 14 17 15 13 11 10 14 16 17 18 19 20
32 35 38 37 37 14 11 7 3 5 13 17 24 24 25 14 10 18 16 15 14 18 18 16 23 22 23 22 24 21 18 17 14 9 15 12 14 12 13 16 17 19 19 19 19
33 35 40 37 23 4 11 1 3 9 8 10 10 10 9 19 15 16 24 20 20 21 21 19 19 21 20 22 24 23 21 18 16 11 15 11 14 14 15 15 16 17 20 21 20
34 35 40 43 4 16 3 5 8 7 6 6 7 7 9 6 9 15 29 22 17 23 21 20 19 23 17 24 22 24 23 18 14 12 13 16 12 14 15 15 17 20 21 21 22
35 33 38 25 17 7 3 5 10 4 6 8 8 9 9 9 4 7 20 25 22 19 21 20 23 21 23 23 25 24 22 19 18 15 18 15 11 13 6 14 19 23 24 24 23
39 39 39 13 11 16 13 9 3 7 9 7 9 12 11 13 5 5 14 20 17 20 17 23 16 20 21 22 22 20 18 13 17 15 18 23 15 15 12 14 16 17 22 24 24
42 42 34 15 6 3 5 6 6 10 4 10 10 14 11 7 9 11 18 22 19 20 20 20 21 17 19 22 23 22 18 11 15 15 15 19 19 16 11 12 15 16 17 22 23
46 38 16 15 10 15 8 7 14 5 18 4 5 11 13 9 9 15 17 20 25 22 14 18 20 26 17 28 26 28 26 16 24 15 14 21 17 18 18 18 21 14 14 19 24
43 20 15 8 13 12 8 15 10 16 11 14 14 15 16 14 7 10 19 20 24 25 23 19 25 23 25 18 27 29 26 26 25 20 16 17 14 22 16 15 16 14 13 17 22
25 21 13 8 11 13 10 25 21 16 10 13 17 12 14 17 13 13 16 16 20 25 22 15 14 23 22 20 26 29 22 24 21 26 24 20 19 12 18 18 17 14 15 17 20
14 6 4 4 14 8 15 23 23 25 16 18 19 20 14 15 15 11 8 11 16 20 21 22 13 14 22 27 27 21 24 21 23 23 20 18 19 17 16 15 16 14 14 16 18
8 5 5 8 8 10 17 20 16 19 24 25 18 21 20 16 16 14 12 9 10 17 25 22 15 15 17 27 29 26 26 26 18 27 21 23 20 16 14 18 22 21 16 11 13
5 8 7 10 8 13 16 17 18 23 22 23 28 22 18 18 20 17 17 13 11 11 15 20 19 14 19 18 16 27 32 29 27 21 26 20 18 18 11 13 13 12 14 7 8
5 4 6 7 12 13 17 14 19 17 21 24 21 20 23 23 19 10 13 14 11 17 7 8 19 22 17 21 20 25 26 30 30 23 24 27 22 21 19 17 17 15 15 10 9
5 4 2 5 6 7 13 15 15 15 14 16 22 22 20 20 21 21 17 10 10 8 6 9 16 17 22 22 20 24 28 28 31 32 29 23 29 25 23 21 18 19 17 12 12
5 5 4 9 13 14 12 13 14 15 9 16 17 21 21 20 19 17 21 18 17 14 15 13 12 13 21 23 25 23 26 28 27 28 30 32 31 23 26 24 24 23 20 15 16
5 9 5 8 8 7 11 11 8 9 11 16 14 11 8 8 7 10 10 13 14 12 14 15 13 10 17 18 22 24 27 27 29 27 25 25 27 30 26 22 25 22 19 17 18
Wind_Direction
355 353 354 354 351 348 344 342 339 334 330 328 328 327 329 326 324 303 261 251 238 223 164 173 187 192 199 225 238 260 249 140 90 255 126 151 152 154 106 139 173 159 151 144 151
354 352 350 349 349 345 342 338 336 333 329 326 325 323 326 327 314 277 277 255 215 199 177 183 187 187 215 225 209 237 274 84 42 120 148 162 166 157 169 159 172 157 129 147 157
352 350 349 347 343 341 339 337 333 329 327 323 322 320 325 335 281 238 62 62 196 196 199 199 199 205 237 233 207 212 263 88 214 215 163 166 175 168 171 178 178 172 155 157 164
350 349 349 346 342 341 339 334 330 324 322 319 318 318 325 315 292 104 186 82 182 192 214 206 206 214 230 223 220 254 243 275 284 168 186 171 159 182 175 120 168 167 164 164 172
348 348 347 344 341 340 336 331 326 320 314 315 312 316 338 251 260 265 256 263 191 190 212 207 206 212 231 231 233 242 266 269 264 208 194 176 174 161 178 134 156 161 167 173 177
346 346 348 344 338 337 333 327 322 318 309 306 302 304 259 269 284 183 163 158 196 200 208 215 219 217 258 243 233 290 260 273 260 193 179 186 172 170 177 161 166 168 175 180 183
345 346 347 341 337 336 331 324 320 313 306 296 270 179 249 255 266 207 201 235 221 205 211 216 221 205 222 233 228 232 243 229 232 168 170 197 176 208 145 164 166 179 182 183 189
348 349 346 341 339 336 330 322 315 314 303 262 193 211 260 250 226 237 233 229 213 210 221 227 216 251 242 235 202 221 231 223 159 172 162 196 191 195 159 173 176 181 182 187 192
349 347 345 342 341 335 328 324 320 335 106 131 171 234 268 195 225 191 197 200 190 184 206 191 200 227 209 218 216 209 229 216 154 192 160 202 239 160 177 188 181 185 185 189 193
345 348 344 342 340 334 327 327 311 85 118 224 258 243 246 228 158 225 188 181 170 176 169 190 199 205 221 211 214 209 224 192 194 190 192 200 216 139 185 200 194 188 191 194 197
345 347 343 341 340 332 333 306 226 194 207 257 294 262 264 205 181 212 180 183 179 181 189 191 201 208 207 215 228 224 208 215 213 157 202 213 219 186 190 208 209 197 198 200 205
346 346 343 339 337 336 349 306 37 354 292 261 253 261 259 259 262 238 193 195 195 198 202 181 214 212 224 217 229 238 224 218 190 172 217 216 231 226 196 211 210 206 204 208 207
344 346 344 339 334 16 324 271 26 325 265 280 237 247 238 202 226 239 194 210 201 207 198 208 204 218 214 223 223 224 229 216 215 183 227 249 232 232 212 208 212 215 211 210 209
341 343 343 340 326 333 308 196 319 319 271 214 199 186 169 185 226 222 207 203 215 214 202 219 213 207 206 225 219 225 223 233 221 204 223 206 244 222 215 207 213 211 212 214 209
340 337 338 344 297 293 329 317 309 234 280 121 149 142 158 212 6 163 199 203 208 214 205 206 209 194 216 214 217 232 226 219 244 217 239 182 239 255 182 224 217 218 212 212 210
335 332 331 336 271 266 284 296 242 230 239 182 168 182 186 204 205 125 187 211 223 216 218 230 200 216 220 215 223 226 249 232 233 233 230 231 211 232 210 230 240 223 214 210 208
330 327 315 265 251 251 301 245 226 236 106 187 194 193 202 190 191 181 185 196 201 202 205 215 204 215 214 211 210 216 213 207 218 226 238 209 231 229 247 217 242 263 207 210 206
327 326 303 248 245 245 247 220 232 238 217 124 206 190 226 197 210 196 191 205 213 211 210 208 212 208 196 213 202 213 215 223 219 221 219 231 234 231 234 261 261 257 253 194 204
329 317 285 266 208 201 217 217 224 230 235 237 217 231 222 205 252 209 215 213 211 218 225 208 227 200 218 216 221 204 220 227 242 228 244 225 211 240 245 248 250 249 221 205 205
320 308 267 204 181 189 221 234 227 255 246 235 226 212 228 214 207 210 212 219 221 213 224 224 234 222 202 215 221 228 211 221 230 237 228 233 240 218 217 228 244 222 223 214 205
305 296 71 204 176 206 226 225 232 245 251 249 235 245 232 238 226 215 237 206 213 201 216 229 214 213 211 208 212 210 224 219 234 228 242 239 234 227 234 253 268 268 219 224 206
303 280 64 168 235 229 237 238 257 248 228 246 250 250 240 236 231 221 226 230 197 221 203 213 218 230 218 223 215 225 213 217 221 225 237 246 245 222 234 228 241 245 260 227 215
286 281 276 228 251 245 246 251 254 252 238 235 233 240 238 236 235 246 234 239 254 229 219 208 225 214 231 222 206 228 225 221 228 237 228 227 232 248 215 238 263 250 244 235 229
282 289 215 206 251 282 287 284 264 244 253 251 246 232 225 227 230 243 218 222 231 231 9 275 218 221 224 224 219 213 226 235 231 230 232 241 240 225 223 230 248 252 245 241 218
252 252 21 287 254 317 297 288 288 269 247 245 242 243 219 218 219 217 236 232 222 189 207 225 237 233 230 253 240 234 219 222 233 239 240 236 234 236 240 248 244 253 253 232 215
286 311 340 288 280 278 271 261 270 270 263 258 237 226 233 230 231 228 227 234 242 225 231 219 249 254 243 242 239 237 232 239 228 236 241 242 247 237 232 235 244 246 247 231 219
256 266 264 278 259 278 268 259 281 347 279 261 299 310 275 266 299 290 291 286 281 249 234 231 235 213 242 231 233 241 242 228 228 236 232 234 237 237 246 240 231 236 232 231 222
Height
812 809 806 802 800 797 793 790 787 784 780 777 773 770 768 764 761 758 755 753 752 752 755 758 759 757 756 750 749 744 753 762 759 759 763 757 765 763 765 777 779 780 781 790 802
813 809 805 802 798 795 792 788 785 782 779 775 772 768 765 762 758 752 748 745 747 749 753 753 753 754 750 747 746 749 750 752 742 742 753 758 759 766 773 778 781 785 785 794 803
812 809 805 801 798 794 790 787 783 779 776 773 770 767 764 761 756 737 742 738 742 747 750 750 749 750 750 742 742 740 752 739 740 738 737 754 760 758 767 779 774 783 787 795 801
810 806 803 799 796 793 788 784 780 777 773 770 767 765 763 764 761 739 741 742 744 748 750 748 747 752 751 750 735 751 736 736 733 738 740 751 749 764 764 764 765 773 784 792 799
809 805 801 797 793 790 786 781 777 773 770 767 764 762 764 757 743 739 739 740 743 746 746 743 745 745 748 738 736 745 736 731 729 735 737 740 753 758 764 763 764 773 784 790 796
808 803 799 795 791 787 783 778 773 769 765 763 760 761 763 756 736 737 738 740 741 742 740 740 737 734 735 735 739 727 732 732 728 732 738 748 752 756 758 759 766 775 781 787 792
808 803 797 793 788 784 779 773 768 764 760 758 758 760 758 740 735 736 736 737 737 737 735 736 735 735 731 737 725 729 745 739 734 734 744 741 765 764 752 759 768 774 778 783 789
806 801 797 791 785 779 774 768 763 758 755 755 755 761 744 731 732 732 732 733 734 735 735 735 737 734 730 721 730 740 736 749 737 738 741 746 758 752 750 759 767 770 775 781 785
805 800 793 788 782 776 769 762 758 756 755 755 759 756 734 728 728 725 726 726 731 733 734 734 736 735 732 741 744 736 751 744 748 736 746 751 752 745 747 754 762 768 772 777 782
804 798 792 785 779 771 764 759 756 756 758 759 758 756 728 720 721 723 724 724 725 729 733 734 737 739 735 736 756 746 747 734 742 742 742 751 747 749 748 750 755 763 768 773 775
801 795 789 783 777 769 762 761 758 753 752 731 721 718 715 717 721 718 721 722 720 724 735 729 743 742 730 723 720 721 730 736 725 723 741 742 744 741 749 749 751 756 762 765 768
799 794 786 779 774 767 766 761 759 762 745 723 717 716 715 717 722 711 717 720 721 730 721 733 739 722 718 719 724 721 730 732 719 724 735 733 742 735 736 746 745 749 753 758 761
797 793 785 776 770 767 767 763 764 762 747 711 707 708 707 710 715 707 706 709 717 723 721 729 721 713 719 722 729 724 728 727 728 731 729 732 745 737 728 734 739 739 741 746 752
795 790 784 775 772 769 764 765 764 763 743 707 705 700 705 702 710 694 694 703 711 717 714 720 704 716 727 729 719 731 709 716 723 736 757 731 761 731 721 733 734 737 737 739 743
794 788 783 782 778 769 766 764 765 762 753 699 696 692 693 700 691 694 689 697 709 710 710 716 713 721 726 719 711 721 702 716 720 730 736 734 753 730 719 729 725 723 725 727 732
791 785 780 779 775 766 765 764 762 755 745 701 688 694 698 692 690 694 696 691 691 704 703 704 695 703 708 704 706 704 713 713 717 726 750 729 740 736 722 722 710 706 712 717 723
785 779 775 775 766 764 764 759 753 739 698 698 695 687 687 690 690 691 702 706 707 722 720 711 704 697 694 711 704 710 723 752 759 751 751 716 732 728 702 696 698 694 695 706 713
778 770 765 762 759 762 762 754 745 703 699 683 687 684 696 683 685 685 695 703 693 696 702 719 728 700 690 695 705 710 712 731 762 751 742 717 737 719 695 689 685 681 686 692 702
775 766 759 754 754 758 752 739 711 701 690 689 683 694 687 681 689 686 687 686 682 682 703 702 708 682 683 687 687 701 711 694 715 708 724 712 713 699 689 692 686 684 685 686 691
777 766 751 750 751 753 741 720 696 690 683 682 691 676 686 677 688 682 678 669 673 670 670 683 708 682 680 683 679 681 684 720 703 736 742 723 716 715 701 693 682 679 681 679 682
776 760 747 749 749 739 719 704 696 686 688 688 684 681 680 679 680 675 674 666 661 665 669 676 694 689 684 688 689 691 691 691 692 701 725 733 714 678 689 685 683 671 669 669 673
777 755 747 749 740 713 706 693 694 686 681 685 678 675 678 677 679 679 679 669 653 656 675 669 681 700 686 665 665 667 682 683 702 714 697 703 700 657 663 669 668 664 657 654 661
772 755 745 745 730 712 698 696 689 693 680 679 678 674 670 675 686 675 669 660 659 660 663 661 679 699 695 677 667 675 670 671 675 679 688 709 701 657 658 664 661 664 658 656 663
775 746 731 732 725 723 711 707 698 683 681 671 668 664 672 673 668 675 671 660 657 657 665 658 665 680 684 677 663 679 673 666 670 678 686 677 681 668 663 667 661 655 655 657 663
771 744 746 729 718 727 724 715 707 693 680 673 674 666 666 675 671 672 668 660 660 659 660 662 677 661 662 656 653 658 663 668 669 665 674 668 670 663 659 658 655 649 646 653 661
772 757 752 745 739 732 724 715 706 697 691 685 678 666 662 668 666 669 665 664 664 652 656 654 674 663 664 652 652 659 654 654 655 657 656 661 659 639 640 645 647 645 642 648 656
769 768 767 743 736 731 717 712 708 707 700 690 685 685 678 668 663 658 658 659 657 659 660 659 663 670 672 646 649 664 646 643 647 643 647 661 646 641 641 638 638 636 637 640 644